|
|
Asteroid (1517) Beograd
(Preview)
The magnitude 16.6 asteroid (1517) Beograd will occult the magnitude 4.2 double star 91 Aquarii (HD 219449) in the constellation Aquarius between 12:10:55 and 12:12:20, 7th January, 2012. The 1.3 second event is visible from China. Position (J2000): R.A. 23 15 53.49482 | Dec. -09° 05' 15....
|
Blobrana
|
0
|
|
|
|
|
Asteroid 2005 BU
(Preview)
The 13 - 29 metre wide asteroid 2005 BU will make a close pass (20.1 lunar distances, 0.0517 AU), travelling at 11.24 km/second, to the Earth-Moon system on the 14th January, 2012 @ 05:17 UT ±00:41. See more The Lunar Distanc...
|
Blobrana
|
0
|
|
|
|
|
Asteroid 2004 YD
(Preview)
The 41 - 92 metre wide asteroid 2004 YD will make a close pass (50.0 lunar distances, 0.1284 AU), travelling at 8.45 km/second, to the Earth-Moon system on the 12th January, 2012 @ 14:03 UT ±2 days 19:02. See more The Lunar Dis...
|
Blobrana
|
0
|
|
|
|
|
Asteroid 2008 SA
(Preview)
The 26 - 58 metre wide asteroid 2008 SA will make a close pass (21.9 lunar distances, 0.0563 AU), travelling at 6.63 km/second, to the Earth-Moon system on the 6th January, 2011 @ 07:30 UT ±18:41. See more The Lunar Distance (LD), the distance between Earth and the Moon, equals 384,401 km, (or 0.00256 A...
|
Blobrana
|
0
|
|
|
|
|
Asteroid 2006 HV57
(Preview)
Orbital elements:
2006 HV57 Earth MOID = 0.1503 AU
Epoch 2012 Mar. 14.0 TT = JDT 2456000.5 MPC
M 85.79471 (2000.0) P Q
n 0.21689679 Peri. 17.43044 +0.21167611 +0.97175969
a 2.7434726 Node 264.88632 -0.90870605 +0.15640528
e 0.5758323 Incl. 6.01025 -0.35978681 +0.17669323
P 4.54 H 18.5 G 0...
|
Blobrana
|
0
|
|
|
|
|
Asteroid 2012 AF3
(Preview)
Orbital elements:
2012 AF3 Earth MOID = 0.0191 AU
Epoch 2012 Mar. 14.0 TT = JDT 2456000.5 MPC
M 154.81611 (2000.0) P Q
n 0.90260543 Peri. 251.70686 +0.97572973 +0.04746816
a 1.0604025 Node 105.14078 +0.02753633 +0.94187609
e 0.1421291 Incl. 12.79474 -0.21724006 +0.33259015
P 1.09 H 24.7...
|
Blobrana
|
0
|
|
|
|
|
Asteroid 2012 AE3
(Preview)
Orbital elements:
2012 AE3 Earth MOID = 0.2636 AU
Epoch 2012 Mar. 14.0 TT = JDT 2456000.5 MPC
M 321.03874 (2000.0) P Q
n 0.57952274 Peri. 290.75587 -0.63918537 +0.42314249
a 1.4248060 Node 279.73905 -0.18819372 -0.89569810
e 0.1864439 Incl. 40.65993 -0.74567096 -0.13665777
P 1.70 H 20.0...
|
Blobrana
|
0
|
|
|
|
|
Asteroid 2012 AD3
(Preview)
Orbital elements:
2012 AD3 PHA, Earth MOID = 0.0283 AU
Epoch 2012 Mar. 14.0 TT = JDT 2456000.5 MPC
M 55.92084 (2000.0) P Q
n 0.30222733 Peri. 215.59544 +0.99546654 -0.08166524
a 2.1991097 Node 148.98080 +0.09305437 +0.94229164
e 0.6092676 Incl. 5.42901 -0.01967887 +0.32468025
P 3.26 H 19...
|
Blobrana
|
0
|
|
|
|
|
Asteroid 1996 AE2
(Preview)
Orbital elements:
1996 AE2 Earth MOID = 0.1213 AU
Epoch 2012 Mar. 14.0 TT = JDT 2456000.5 MPC
M 68.62025 (2000.0) P Q
n 0.61628231 Peri. 305.87462 +0.27949026 -0.80006174
a 1.3675701 Node 118.98011 +0.95222622 +0.30184429
e 0.2568528 Incl. 37.35965 -0.12308706 +0.51845080
P 1.60 H 20.0 G...
|
Blobrana
|
0
|
|
|
|
|
Asteroid 2012 AC3
(Preview)
Orbital elements:
2012 AC3 Earth MOID = 0.0659 AU
Epoch 2012 Mar. 14.0 TT = JDT 2456000.5 MPC
M 18.15750 (2000.0) P Q
n 0.44292650 Peri. 208.97939 -0.66185848 -0.73885858
a 1.7044396 Node 282.76875 +0.71036568 -0.56423518
e 0.3949921 Incl. 7.45951 +0.23942420 -0.36841100
P 2.23 H 23.0 G 0...
|
Blobrana
|
1
|
|
|
|
|
Asteroid 2012 AB3
(Preview)
Orbital elements:
2012 AB3 Earth MOID = 0.0347 AU
Epoch 2012 Mar. 14.0 TT = JDT 2456000.5 MPC
M 26.13802 (2000.0) P Q
n 0.25774490 Peri. 310.95002 +0.43704947 -0.89057210
a 2.4453592 Node 112.71766 +0.86080294 +0.37354597
e 0.6212914 Incl. 7.84928 +0.26077971 +0.25950867
P 3.82 H 24.0 G 0...
|
Blobrana
|
0
|
|
|
|
|
Asteroid 2012 AA3
(Preview)
Orbital elements:
2012 AA3 Earth MOID = 0.1755 AU
Epoch 2012 Mar. 14.0 TT = JDT 2456000.5 MPC
M 38.29110 (2000.0) P Q
n 0.36423992 Peri. 164.99481 +0.25017941 -0.95407552
a 1.9418292 Node 270.30754 +0.87047317 +0.29615605
e 0.4049197 Incl. 9.48419 +0.42389470 -0.04507215
P 2.71 H 22.4 G 0...
|
Blobrana
|
0
|
|
|
|
|
Asteroid 2011 YL63
(Preview)
Orbital elements:
2011 YL63 Earth MOID = 0.1688 AU
Epoch 2012 Mar. 14.0 TT = JDT 2456000.5 MPC
M 59.89366 (2000.0) P Q
n 0.38619805 Peri. 204.90329 +0.61383204 +0.72138271
a 1.8675088 Node 104.65466 -0.65737085 +0.69198476
e 0.8496893 Incl. 19.35580 -0.43711989 -0.02764184
P 2.55 H 20.5...
|
Blobrana
|
0
|
|
|
|
|
Asteroid 2011 YM63
(Preview)
Orbital elements:
2011 YM63 Earth MOID = 0.0997 AU
Epoch 2012 Mar. 14.0 TT = JDT 2456000.5 MPC
M 10.19435 (2000.0) P Q
n 0.28203769 Peri. 181.58409 -0.78565759 -0.61845859
a 2.3028445 Node 320.19795 +0.56788276 -0.71077246
e 0.5282071 Incl. 1.41852 +0.24546142 -0.33512907
P 3.49 H 22.3 G...
|
Blobrana
|
0
|
|
|
|
|
Asteroid 2012 AW
(Preview)
Orbital elements:
2012 AW Earth MOID = 0.1190 AU
Epoch 2012 Mar. 14.0 TT = JDT 2456000.5 MPC
M 323.84537 (2000.0) P Q
n 0.78635947 Peri. 140.70754 -0.70120351 +0.67181202
a 1.1624884 Node 83.26754 -0.69959584 -0.58382126
e 0.2888497 Incl. 13.90820 -0.13740197 -0.45587428
P 1.25 H 21.9 G 0...
|
Blobrana
|
0
|
|
|